Location: Indian Springs
(36.5700°N, 115.6700°W)
Time: 15:39:12
(UTC-07:00)

Amateur Radio Satellites - All Passes

Search period start: 25 May 2016 15:09
Search period end: 26 May 2016 15:09
Location: Indian Springs, 36.5700°N, 115.6700°W

Satellite Date Start Highest point End Downlink Frequencies (MHz)
Time Altitude Azimuth
Gurwin Techsat 1B 25 May 15:26:55 15:30:01 16° 268° (W) 15:33:08 435.225
AIST 2 25 May 15:33:59 15:36:41 17° 312° (NW) 15:39:24 435.215
AO-7 25 May 15:36:16 15:44:33 89° 74° (ENE) 15:52:55 29.400- 29.500
RS-15 25 May 15:52:43 16:00:08 20° 99° (E) 16:07:44 29.354- 29.394
ITAMSAT 1 25 May 15:59:00 16:02:34 19° 266° (W) 16:06:10 435.822/435.867
SWISSCUBE 25 May 16:03:14 16:06:52 22° 293° (WNW) 16:10:29 437.505
ITUPSAT 1 25 May 16:08:03 16:11:43 22° 293° (WNW) 16:15:23 437.325
AO-85 25 May 16:25:46 16:30:00 40° 247° (WSW) 16:33:54 145.980
MOZHAYETS 4 25 May 16:26:43 16:31:17 58° 100° (E) 16:35:50
KKS-1 25 May 16:28:25 16:32:51 83° 100° (E) 16:37:17 437.445
BEESAT 25 May 16:34:47 16:36:36 12° 297° (WNW) 16:38:26 436.000
NOAA 15 25 May 16:34:49 16:37:27 14° 62° (ENE) 16:40:05 137.62
YUBILEINY 25 May 16:47:56 16:56:38 84° 276° (W) 17:05:23 435.215
HORYU 2 25 May 16:50:31 16:54:56 78° 256° (WSW) 16:59:22 437.375
Cosmos 2491 25 May 16:51:24 16:59:15 39° 273° (W) 17:07:04 435.465 / 435.565
STARS 25 May 17:10:32 17:14:52 65° 285° (WNW) 17:19:10 437.465
CUTE-I 25 May 17:16:27 17:20:33 23° 66° (ENE) 17:24:41 437.470
Cosmos 2504 25 May 17:22:22 17:29:01 43° 89° (E) 17:35:56 435.465 / 435.565
AO-7 25 May 17:33:37 17:38:13 16° 268° (W) 17:42:51 29.400- 29.500
LilacSat-2 25 May 17:35:41 17:38:46 24° 71° (ENE) 17:41:50 437.200
CUBESAT XI-V 25 May 17:45:50 17:50:21 44° 99° (E) 17:54:50 437.345
NOAA 18 25 May 17:47:50 17:53:12 60° 73° (ENE) 17:58:33 137.9125
BRITE-PL 25 May 17:47:54 17:53:17 52° 73° (ENE) 17:58:50 437.365/2234.400
DOVE 4 25 May 17:50:36 17:52:40 12° 64° (ENE) 17:54:42 437.250
RS-15 25 May 17:59:30 18:10:47 89° 299° (WNW) 18:22:46 29.354- 29.394
MOZHAYETS 4 25 May 18:05:51 18:07:55 13° 295° (WNW) 18:10:00
Cubesat XI-IV 25 May 18:07:56 18:13:12 73° 75° (ENE) 18:18:31 437.490
NOAA 15 25 May 18:11:18 18:16:34 70° 257° (WSW) 18:21:54 137.62
PCSat 25 May 18:20:09 18:23:44 18° 48° (NE) 18:27:17 145.827
GOMX 1 25 May 18:24:16 18:29:38 57° 74° (ENE) 18:34:57 467.674
AUBIESAT-1 25 May 18:30:18 18:32:09 13° 63° (ENE) 18:33:59 437.475
M-CUBED/EXP-1 PRIME 25 May 18:33:53 18:36:46 18° 65° (ENE) 18:39:32 437.505
YUBILEINY 25 May 18:50:16 18:54:45 15° 296° (WNW) 18:59:16 435.215
CUTE-I 25 May 18:55:24 19:00:20 39° 261° (W) 19:05:18 437.470
LilacSat-2 25 May 19:10:14 19:13:00 19° 265° (W) 19:15:47 437.200
CANX-2 25 May 19:11:54 19:15:06 22° 69° (ENE) 19:18:20 2200.000
Cosmos 2504 25 May 19:16:22 19:22:30 30° 287° (WNW) 19:28:54 435.465 / 435.565
HO-68 25 May 19:19:12 19:25:50 44° 67° (ENE) 19:32:31 435.675
SEEDS 25 May 19:19:42 19:22:20 17° 68° (ENE) 19:24:59 437.485
CUBESAT XI-V 25 May 19:24:19 19:27:20 17° 294° (WNW) 19:30:21 437.345
DOVE 4 25 May 19:24:26 19:29:43 77° 258° (WSW) 19:34:53 437.250
BRITE-PL 25 May 19:28:04 19:32:00 20° 268° (W) 19:36:01 437.365/2234.400
NOAA 18 25 May 19:31:04 19:34:12 15° 267° (W) 19:37:20 137.9125
CUTE 1.7 + AOD 2 25 May 19:38:47 19:42:41 38° 73° (ENE) 19:46:35 437.475
CUBEBUG 2 25 May 19:41:38 19:43:53 14° 67° (ENE) 19:46:05 437.445
STRAND 1 25 May 19:48:05 19:53:11 62° 101° (E) 19:58:17 437.568
Cubesat XI-IV 25 May 19:51:55 19:53:46 12° 269° (W) 19:55:36 437.490
O/OREOS (USA 219) 25 May 19:53:40 19:58:07 65° 69° (ENE) 20:02:32 437.305
AUBIESAT-1 25 May 20:02:11 20:06:20 49° 255° (WSW) 20:10:12 437.475
PCSat 25 May 20:02:14 20:07:37 67° 247° (WSW) 20:12:58 145.827
GOMX 1 25 May 20:04:27 20:07:57 17° 268° (W) 20:11:27 467.674
M-CUBED/EXP-1 PRIME 25 May 20:07:07 20:11:06 35° 256° (WSW) 20:14:51 437.505
COMPASS 1 25 May 20:08:23 20:12:17 42° 74° (ENE) 20:16:14 437.405
CINEMA 3 25 May 20:11:25 20:16:16 79° 259° (W) 20:20:55 145.822/145.860
AAUSAT CUBESAT 2 25 May 20:13:10 20:16:58 38° 73° (ENE) 20:20:49 437.432
UWE-3 25 May 20:13:39 20:16:56 21° 70° (ENE) 20:20:09 435.000/436.395/437.385
RS-15 25 May 20:15:33 20:25:05 29° 324° (NW) 20:35:04 29.354- 29.394
PRISM 25 May 20:22:58 20:26:18 23° 96° (E) 20:29:35 437.425
FUNcube-1 25 May 20:24:26 20:27:11 17° 68° (ENE) 20:29:55 145.935
BEESAT 2 25 May 20:26:23 20:28:47 15° 48° (NE) 20:31:10 435.950
GONETS M04 25 May 20:44:36 20:50:36 21° 81° (E) 20:56:35
CANX-2 25 May 20:47:16 20:50:48 26° 264° (W) 20:54:22 2200.000
ISS 25 May 20:53:05 20:55:14 16° 129° (SE) 20:57:23 145.825
SEEDS 25 May 20:53:55 20:57:44 35° 262° (W) 21:01:34 437.485
DELFI C3 25 May 21:01:26 21:04:37 24° 70° (ENE) 21:07:49 145.870
BEESAT 3 25 May 21:04:13 21:08:09 65° 59° (ENE) 21:12:03 437.485
HO-68 25 May 21:07:23 21:13:36 32° 263° (W) 21:19:53 435.675
Oscar 11 25 May 21:09:25 21:13:41 71° 76° (ENE) 21:17:59 145.826/435.025
CUBEBUG 2 25 May 21:15:50 21:20:07 47° 260° (W) 21:24:19 437.445
CUTE 1.7 + AOD 2 25 May 21:16:19 21:18:40 15° 267° (W) 21:21:01 437.475
ZACube-1 25 May 21:19:33 21:23:50 83° 74° (ENE) 21:28:02 437.345
STRAND 1 25 May 21:29:00 21:31:48 15° 297° (WNW) 21:34:36 437.568
AIST 1 25 May 21:41:27 21:45:49 71° 277° (W) 21:50:14
COMPASS 1 25 May 21:46:11 21:48:02 13° 268° (W) 21:49:54 437.405
HUMSAT D 25 May 21:46:23 21:50:07 35° 73° (ENE) 21:53:51 437.325/437.525
UWE-3 25 May 21:49:28 21:53:13 28° 263° (W) 21:56:56 435.000/436.395/437.385
AAUSAT CUBESAT 2 25 May 21:50:23 21:52:36 14° 267° (W) 21:54:50 437.432
PRISM 25 May 21:58:06 22:01:31 25° 291° (WNW) 22:04:55 437.425
FUNcube-1 25 May 21:59:16 22:03:10 34° 262° (W) 22:07:01 145.935
BEESAT 2 25 May 22:03:02 22:06:51 45° 245° (WSW) 22:10:39 435.950
Cosmos 2499 25 May 22:03:15 22:09:43 38° 87° (E) 22:16:31 435.465 / 435.565
DANDE 25 May 22:08:24 22:13:47 18° 63° (ENE) 22:18:55 436.750
AIST 2 25 May 22:18:31 22:21:07 16° 48° (NE) 22:23:41 435.215
UNISAT 6 25 May 22:20:21 22:23:49 23° 96° (E) 22:27:19 437.425
ISS 25 May 22:28:20 22:31:26 40° 324° (NW) 22:34:32 145.825
TIGRISAT 25 May 22:28:27 22:32:08 27° 97° (E) 22:35:49 435.000
ESTCUBE 1 25 May 22:30:03 22:33:31 22° 68° (ENE) 22:36:59 437.505/2401.250
PHONESAT 2.4 25 May 22:30:38 22:33:36 38° 152° (SSE) 22:36:32 2401.200-2431.200
CUSAT 1 25 May 22:32:41 22:40:07 45° 74° (ENE) 22:46:21 437.405
DELFI C3 25 May 22:36:21 22:39:24 21° 265° (W) 22:42:28 145.870
RS-15 25 May 22:37:12 22:43:41 15° 0° (N) 22:50:15 29.354- 29.394
GONETS M04 25 May 22:37:39 22:46:27 73° 279° (W) 22:55:15
CUBEBUG 1 25 May 22:58:35 23:02:28 30° 71° (ENE) 23:06:22 437.445
VELOX 1 25 May 23:00:08 23:04:04 31° 71° (ENE) 23:08:01 145.980
ANTELSAT 25 May 23:00:59 23:05:17 72° 102° (ESE) 23:09:38 437.575/2403.000
DX 1 25 May 23:01:57 23:05:40 28° 70° (ENE) 23:09:25 434.975-435.025
HUMSAT D 25 May 23:23:30 23:25:50 15° 267° (W) 23:28:11 437.325/437.525
DUCHIFAT 1 25 May 23:29:40 23:32:53 21° 95° (E) 23:36:05 145.980
SO-50 25 May 23:33:02 23:35:30 14° 107° (ESE) 23:37:59 436.795
SPROUT 25 May 23:34:56 23:38:37 28° 71° (ENE) 23:42:17 437.525
AISAT 25 May 23:35:19 23:39:48 85° 75° (ENE) 23:44:17 437.250
50 SAT 25 May 23:44:00 23:47:35 62° 259° (W) 23:51:12 437.505
DANDE 25 May 23:49:18 23:57:49 87° 82° (E) 00:05:27 436.750
UKube-1 25 May 23:54:13 23:58:33 89° 256° (WSW) 00:02:54 .
AIST 2 25 May 23:55:51 23:59:51 47° 245° (WSW) 00:03:49 435.215
Cosmos 2499 25 May 23:56:22 00:02:46 34° 286° (WNW) 00:09:35 435.465 / 435.565
BUGSAT 1 25 May 23:56:25 23:59:19 19° 95° (E) 00:02:11 437.445
UNISAT 6 25 May 23:56:55 00:00:28 26° 290° (WNW) 00:04:02 437.425
POPSAT HIP 1 26 May 00:04:45 00:08:55 64° 102° (ESE) 00:13:04 437.405
QB50P1 26 May 00:05:20 00:09:31 67° 101° (E) 00:13:41 145.935-145.965
TIGRISAT 26 May 00:05:21 00:08:40 22° 291° (WNW) 00:12:00 435.000
ESTCUBE 1 26 May 00:06:09 00:10:07 30° 263° (W) 00:14:07 437.505/2401.250
QB50P2 26 May 00:06:54 00:11:07 74° 102° (ESE) 00:15:19 145.880/145.840
PHONESAT 2.4 26 May 00:07:15 00:10:18 51° 348° (NNW) 00:13:23 2401.200-2431.200
TISAT 1 26 May 00:07:18 00:10:10 18° 68° (ENE) 00:13:02 437.305
POLYITAN 1 26 May 00:09:21 00:13:33 76° 102° (ESE) 00:17:44 437.675
CUSAT 1 26 May 00:15:19 00:21:51 31° 275° (W) 00:27:28 437.405
NANOSAT C BR1 26 May 00:24:56 00:29:07 74° 283° (WNW) 00:33:16 145.865
JAS-2 26 May 00:25:46 00:31:15 22° 90° (E) 00:36:17 435.910
CUBEBUG 1 26 May 00:35:23 00:38:45 21° 265° (W) 00:42:07 437.445
VELOX 1 26 May 00:37:12 00:40:32 21° 265° (W) 00:43:54 145.980
DX 1 26 May 00:38:21 00:41:48 23° 264° (W) 00:45:17 434.975-435.025
GONETS M04 26 May 00:41:36 00:44:52 12° 298° (WNW) 00:48:09
RS-15 26 May 00:52:11 01:02:22 29° 36° (NE) 01:12:32 29.354- 29.394
DUCHIFAT 1 26 May 01:05:03 01:08:32 26° 290° (WNW) 01:12:00 145.980
SO-50 26 May 01:10:36 01:15:27 62° 302° (WNW) 01:20:20 436.795
SPROUT 26 May 01:11:15 01:14:31 21° 265° (W) 01:17:48 437.525
SWISSCUBE 26 May 01:29:08 01:33:16 31° 70° (ENE) 01:37:27 437.505
BUGSAT 1 26 May 01:31:16 01:34:41 27° 289° (WNW) 01:38:05 437.445
ITUPSAT 1 26 May 01:34:14 01:38:23 31° 70° (ENE) 01:42:34 437.325
DANDE 26 May 01:34:21 01:39:28 18° 280° (W) 01:44:20 436.750
TISAT 1 26 May 01:41:43 01:45:33 33° 262° (W) 01:49:24 437.305
PHONESAT 2.4 26 May 01:44:23 01:47:22 39° 5° (N) 01:50:20 2401.200-2431.200
Oscar 19 26 May 01:55:40 02:00:45 57° 101° (E) 02:05:46 437.125/150
BEESAT 26 May 01:58:29 02:03:08 58° 74° (ENE) 02:07:48 436.000
Gurwin Techsat 1B 26 May 02:03:45 02:08:14 27° 96° (E) 02:12:41 435.225
JAS-2 26 May 02:09:26 02:16:48 61° 289° (WNW) 02:23:22 435.910
ITAMSAT 1 26 May 02:34:07 02:37:51 20° 94° (E) 02:41:34 435.822/435.867
YUBILEINY 26 May 03:01:21 03:09:36 43° 76° (ENE) 03:17:50 435.215
RS-15 26 May 03:04:25 03:16:50 86° 61° (ENE) 03:29:07 29.354- 29.394
SWISSCUBE 26 May 03:07:15 03:11:03 24° 264° (W) 03:14:51 437.505
ITUPSAT 1 26 May 03:12:24 03:16:12 24° 264° (W) 03:20:01 437.325
Cosmos 2504 26 May 03:18:23 03:22:40 14° 65° (ENE) 03:27:00 435.465 / 435.565
PHONESAT 2.4 26 May 03:21:09 03:24:17 85° 199° (SSW) 03:27:24 2401.200-2431.200
ISS 26 May 03:22:38 03:24:12 13° 23° (NNE) 03:25:45 145.825
KKS-1 26 May 03:23:45 03:28:07 55° 74° (ENE) 03:32:29 437.445
MOZHAYETS 4 26 May 03:26:09 03:30:23 40° 72° (ENE) 03:34:40
Oscar 19 26 May 03:36:29 03:39:33 16° 296° (WNW) 03:42:37 437.125/150
BEESAT 26 May 03:39:15 03:41:15 12° 268° (W) 03:43:14 436.000
AO-7 26 May 03:41:08 03:48:38 35° 99° (E) 03:56:04 29.400- 29.500
Gurwin Techsat 1B 26 May 03:43:26 03:48:09 33° 291° (WNW) 03:52:51 435.225
Cosmos 2491 26 May 03:52:01 04:00:27 52° 89° (E) 04:08:52 435.465 / 435.565
JAS-2 26 May 03:58:54 04:00:06 10° 308° (NW) 04:01:18 435.910
STARS 26 May 04:04:17 04:08:42 80° 76° (ENE) 04:13:07 437.465
ITAMSAT 1 26 May 04:12:32 04:17:29 44° 289° (WNW) 04:22:25 435.822/435.867
HORYU 2 26 May 04:44:26 04:48:00 23° 96° (E) 04:51:32 437.375
CUBESAT XI-V 26 May 04:46:45 04:50:53 32° 71° (ENE) 04:55:03 437.345
ISS 26 May 04:57:50 05:01:06 78° 42° (NE) 05:04:20 145.825
YUBILEINY 26 May 04:58:25 05:06:10 37° 274° (W) 05:13:57 435.215
AO-85 26 May 04:58:40 05:01:18 14° 106° (ESE) 05:03:56 145.980
PHONESAT 2.4 26 May 04:58:47 05:00:42 15° 215° (SW) 05:02:37 2401.200-2431.200
KKS-1 26 May 05:03:23 05:04:58 12° 268° (W) 05:06:35 437.445
MOZHAYETS 4 26 May 05:04:50 05:07:42 16° 267° (W) 05:10:35
Cosmos 2504 26 May 05:08:44 05:17:13 80° 83° (E) 05:26:05 435.465 / 435.565
RS-15 26 May 05:19:03 05:27:47 23° 260° (W) 05:36:28 29.354- 29.394
AO-7 26 May 05:33:34 05:41:28 48° 295° (WNW) 05:49:21 29.400- 29.500
CUTE-I 26 May 05:38:32 05:39:11 10° 90° (E) 05:39:49 437.470
Cosmos 2491 26 May 05:49:55 05:57:31 32° 288° (WNW) 06:05:11 435.465 / 435.565
BRITE-PL 26 May 05:57:05 06:00:40 19° 91° (E) 06:04:03 437.365/2234.400
NOAA 18 26 May 06:12:42 06:17:30 31° 97° (E) 06:22:18 137.9125
HORYU 2 26 May 06:20:45 06:24:29 27° 290° (WNW) 06:28:14 437.375
CUBESAT XI-V 26 May 06:24:42 06:28:16 22° 266° (W) 06:31:53 437.345
Cubesat XI-IV 26 May 06:27:55 06:32:48 35° 98° (E) 06:37:40 437.490
NOAA 15 26 May 06:29:01 06:34:13 54° 101° (E) 06:39:21 137.62
GOMX 1 26 May 06:30:35 06:33:40 18° 92° (E) 06:36:40 467.674
AO-85 26 May 06:35:45 06:41:12 75° 300° (WNW) 06:46:37 145.980
LilacSat-2 26 May 06:44:50 06:48:30 49° 100° (E) 06:52:10 437.200
STRAND 1 26 May 07:01:26 07:06:29 69° 74° (ENE) 07:11:34 437.568
Cosmos 2504 26 May 07:04:13 07:09:39 19° 279° (W) 07:15:14 435.465 / 435.565
PRISM 26 May 07:11:34 07:13:23 13° 65° (ENE) 07:15:12 437.425
CUTE-I 26 May 07:14:24 07:19:46 82° 285° (WNW) 07:25:08 437.470
JUGNU 26 May 07:25:26 07:28:23 14° 173° (S) 07:31:20 437.505
DOVE 4 26 May 07:26:54 07:30:49 32° 96° (E) 07:34:35 437.250
BRITE-PL 26 May 07:34:34 07:39:21 40° 289° (WNW) 07:43:45 437.365/2234.400
M-CUBED/EXP-1 PRIME 26 May 07:50:10 07:51:43 13° 99° (E) 07:53:16 437.505
AIST 1 26 May 07:51:46 07:55:07 21° 75° (ENE) 07:58:26
NOAA 18 26 May 07:53:18 07:58:04 31° 292° (WNW) 08:02:50 137.9125
Cosmos 2499 26 May 07:58:34 08:01:57 13° 63° (ENE) 08:05:21 435.465 / 435.565
GOMX 1 26 May 08:07:39 08:11:57 36° 289° (WNW) 08:15:58 467.674
Cubesat XI-IV 26 May 08:08:17 08:12:40 26° 293° (WNW) 08:17:04 437.490
CINEMA 3 26 May 08:09:19 08:12:49 26° 96° (E) 08:16:18 145.822/145.860
NOAA 15 26 May 08:10:05 08:13:30 18° 296° (WNW) 08:16:55 137.62
AO-85 26 May 08:20:10 08:22:33 13° 318° (NW) 08:24:55 145.980
CANX-2 26 May 08:33:48 08:38:04 60° 101° (E) 08:42:17 2200.000
HO-68 26 May 08:36:30 08:43:34 58° 102° (ESE) 08:50:35 435.675
SEEDS 26 May 08:39:50 08:43:53 42° 99° (E) 08:47:56 437.485
PRISM 26 May 08:44:15 08:48:14 48° 260° (W) 08:52:16 437.425
STRAND 1 26 May 08:44:23 08:46:06 12° 269° (W) 08:47:50 437.568
GONETS M04 26 May 08:51:11 08:59:36 51° 78° (ENE) 09:07:57
PCSat 26 May 08:59:24 09:03:31 22° 106° (ESE) 09:07:39 145.827
Oscar 11 26 May 09:00:20 09:02:57 16° 93° (E) 09:05:35 145.826/435.025
CUTE 1.7 + AOD 2 26 May 09:01:22 09:05:38 73° 284° (WNW) 09:09:54 437.475
DOVE 4 26 May 09:05:15 09:08:16 18° 293° (WNW) 09:11:12 437.250
CUBEBUG 2 26 May 09:08:57 09:12:51 38° 98° (E) 09:16:47 437.445
ZACube-1 26 May 09:11:07 09:14:00 18° 94° (E) 09:16:55 437.345
JUGNU 26 May 09:13:20 09:16:36 15° 183° (S) 09:19:51 437.505
SRMSAT 26 May 09:16:16 09:18:49 13° 171° (S) 09:21:21 437.500
UNISAT 6 26 May 09:17:44 09:20:29 16° 67° (ENE) 09:23:11 437.425
AUBIESAT-1 26 May 09:17:59 09:21:04 37° 291° (WNW) 09:24:09 437.475
M-CUBED/EXP-1 PRIME 26 May 09:23:37 09:26:22 25° 293° (WNW) 09:29:04 437.505
TIGRISAT 26 May 09:25:28 09:28:31 19° 68° (ENE) 09:31:32 435.000
COMPASS 1 26 May 09:28:43 09:32:56 68° 284° (WNW) 09:37:07 437.405
AIST 1 26 May 09:29:03 09:32:39 26° 271° (W) 09:36:14
AAUSAT CUBESAT 2 26 May 09:32:46 09:36:59 78° 283° (WNW) 09:41:10 437.432
UWE-3 26 May 09:40:36 09:44:45 64° 101° (E) 09:48:58 435.000/436.395/437.385
SO-50 26 May 09:44:36 09:49:14 59° 57° (ENE) 09:53:42 436.795
CINEMA 3 26 May 09:46:42 09:49:49 21° 291° (WNW) 09:52:55 145.822/145.860
Cosmos 2499 26 May 09:47:53 09:56:30 71° 81° (E) 10:05:22 435.465 / 435.565
FUNcube-1 26 May 09:49:05 09:53:08 48° 99° (E) 09:57:15 145.935
ANTELSAT 26 May 09:57:21 10:01:32 45° 74° (ENE) 10:05:40 437.575/2403.000
O/OREOS (USA 219) 26 May 10:03:11 10:07:43 65° 292° (WNW) 10:12:15 437.305
CANX-2 26 May 10:12:19 10:13:22 11° 295° (WNW) 10:14:25 2200.000
DELFI C3 26 May 10:15:19 10:19:18 55° 100° (E) 10:23:14 145.870
SEEDS 26 May 10:16:52 10:19:12 15° 293° (WNW) 10:21:31 437.485
DUCHIFAT 1 26 May 10:20:43 10:22:30 12° 66° (ENE) 10:24:18 145.980
HO-68 26 May 10:25:08 10:30:46 26° 298° (WNW) 10:36:24 435.675
Oscar 11 26 May 10:35:10 10:39:12 39° 287° (WNW) 10:43:14 145.826/435.025
PCSat 26 May 10:41:26 10:46:34 44° 302° (WNW) 10:51:46 145.827
BUGSAT 1 26 May 10:45:43 10:46:50 11° 65° (ENE) 10:47:58 437.445
ZACube-1 26 May 10:46:37 10:50:20 31° 288° (WNW) 10:54:05 437.345
CUBEBUG 2 26 May 10:46:47 10:49:09 15° 293° (WNW) 10:51:32 437.445
GONETS M04 26 May 10:48:42 10:55:57 31° 276° (W) 11:03:14
UNISAT 6 26 May 10:52:46 10:56:53 39° 261° (W) 11:00:57 437.425
BEESAT 3 26 May 10:53:31 10:56:21 19° 111° (ESE) 10:59:13 437.485
POPSAT HIP 1 26 May 10:54:50 10:58:40 34° 72° (ENE) 11:02:30 437.405
QB50P1 26 May 10:55:21 10:59:13 35° 72° (ENE) 11:03:04 145.935-145.965
QB50P2 26 May 10:57:02 11:00:59 39° 72° (ENE) 11:04:56 145.880/145.840
POLYITAN 1 26 May 10:59:28 11:03:26 40° 73° (ENE) 11:07:23 437.675
TIGRISAT 26 May 11:00:59 11:04:58 33° 262° (W) 11:08:54 435.000
SRMSAT 26 May 11:03:54 11:07:11 15° 181° (S) 11:10:27 437.500
HUMSAT D 26 May 11:07:04 11:11:14 82° 283° (WNW) 11:15:26 437.325/437.525
NANOSAT C BR1 26 May 11:14:18 11:18:26 57° 75° (ENE) 11:22:35 145.865
DANDE 26 May 11:15:58 11:18:15 13° 77° (ENE) 11:20:45 436.750
50 SAT 26 May 11:17:18 11:19:02 13° 93° (E) 11:20:47 437.505
FUNcube-1 26 May 11:27:10 11:28:59 13° 294° (WNW) 11:30:48 145.935
SO-50 26 May 11:27:10 11:29:07 13° 253° (WSW) 11:31:03 436.795
AISAT 26 May 11:28:59 11:32:08 19° 94° (E) 11:35:16 437.250
CUSAT 1 26 May 11:30:46 11:36:26 48° 90° (E) 11:43:26 437.405
ANTELSAT 26 May 11:36:18 11:38:27 13° 267° (W) 11:40:34 437.575/2403.000
Cosmos 2499 26 May 11:42:35 11:48:48 23° 278° (W) 11:55:08 435.465 / 435.565
UKube-1 26 May 11:44:50 11:47:47 18° 94° (E) 11:50:43 .
BEESAT 2 26 May 11:52:21 11:56:13 53° 116° (ESE) 12:00:06 435.950
DELFI C3 26 May 11:52:55 11:53:38 10° 295° (WNW) 11:54:22 145.870
DUCHIFAT 1 26 May 11:53:39 11:57:45 50° 260° (W) 12:01:51 145.980
ESTCUBE 1 26 May 12:00:22 12:04:54 66° 101° (ESE) 12:09:25 437.505/2401.250
JAS-2 26 May 12:16:42 12:23:36 51° 69° (ENE) 12:31:04 435.910
BUGSAT 1 26 May 12:17:32 12:21:42 57° 260° (W) 12:25:50 437.445
CUBEBUG 1 26 May 12:25:09 12:29:32 87° 98° (E) 12:33:53 437.445
DX 1 26 May 12:27:49 12:32:11 73° 101° (ESE) 12:36:30 434.975-435.025
VELOX 1 26 May 12:28:23 12:32:51 89° 131° (SE) 12:37:14 145.980
BEESAT 3 26 May 12:30:22 12:33:50 29° 306° (NW) 12:37:21 437.485
POPSAT HIP 1 26 May 12:31:44 12:34:31 17° 266° (W) 12:37:19 437.405
QB50P1 26 May 12:32:21 12:35:04 17° 266° (W) 12:37:47 145.935-145.965
QB50P2 26 May 12:34:29 12:36:55 15° 267° (W) 12:39:22 145.880/145.840
POLYITAN 1 26 May 12:37:01 12:39:22 15° 267° (W) 12:41:44 437.675
50 SAT 26 May 12:49:29 12:52:52 34° 287° (WNW) 12:56:15 437.505
SRMSAT 26 May 12:53:50 12:55:31 11° 192° (SSW) 12:57:12 437.500
DANDE 26 May 12:54:37 12:59:38 74° 280° (W) 13:06:26 436.750
SPROUT 26 May 12:58:24 13:02:41 78° 104° (ESE) 13:06:54 437.525
AISAT 26 May 13:04:43 13:08:40 33° 289° (WNW) 13:12:35 437.250
Oscar 19 26 May 13:09:52 13:14:59 64° 74° (ENE) 13:20:09 437.125/150
CUSAT 1 26 May 13:13:40 13:18:53 28° 293° (WNW) 13:25:03 437.405
UKube-1 26 May 13:19:59 13:23:53 34° 289° (WNW) 13:27:46 .
Gurwin Techsat 1B 26 May 13:22:22 13:27:07 34° 69° (ENE) 13:31:52 435.225
TISAT 1 26 May 13:27:44 13:31:41 41° 99° (E) 13:35:37 437.305
BEESAT 2 26 May 13:32:20 13:34:22 14° 313° (NW) 13:36:25 435.950
ESTCUBE 1 26 May 13:39:46 13:41:07 11° 296° (WNW) 13:42:27 437.505/2401.250
ITAMSAT 1 26 May 13:49:45 13:53:50 24° 67° (ENE) 13:57:55 435.822/435.867
AIST 2 26 May 13:50:38 13:54:41 63° 117° (ESE) 13:58:47 435.215
BEESAT 26 May 14:02:05 14:05:19 18° 94° (E) 14:08:32 436.000
JAS-2 26 May 14:02:39 14:08:47 30° 267° (W) 14:15:24 435.910
Cosmos 2491 26 May 14:06:27 14:12:52 22° 68° (ENE) 14:19:13 435.465 / 435.565
AO-7 26 May 14:37:32 14:45:02 40° 63° (ENE) 14:52:33 29.400- 29.500
Oscar 19 26 May 14:52:20 14:54:42 13° 269° (W) 14:57:05 437.125/150
